Location: Cantaing
(50.1487°N, 3.1675°E)
Time: 16:07:19
(UTC+00:00)

Meteor 2-19 Rocket - Pass Details

Date: 22 April 2026
Orbit: 936 x 958 km, 82.5° (Epoch: 13 May)

Event Time Altitude Azimuth Distance (km) Brightness Sun altitude
Rises 19:57:13 0° 341° (NNW) 3,645 8.4 -10.0°
Reaches altitude 10° 20:00:11 10° 328° (NNW) 2,691 8.0 -10.4°
Maximum altitude 20:04:54 24° 278° (W) 1,870 6.8 -11.1°
Drops below altitude 10° 20:09:36 10° 227° (SW) 2,665 6.9 -11.7°
Sets 20:12:32 0° 214° (SSW) 3,601 7.4 -12.1°
